Location: Étouvelles
(49.5207°N, 3.5808°E)
Time: 08:51:34
(UTC+00:00)

BlueWalker 3 - Pass Details

Date: 03 February 2023
Orbit: 497 x 515 km, 53.2° (Epoch: 22 March)

Event Time Altitude Azimuth Distance (km) Brightness Sun altitude
Rises 18:31:54 0° 281° (W) 2,601 7.0 -17.6°
Reaches altitude 10° 18:34:09 10° 287° (WNW) 1,720 5.7 -18.0°
Maximum altitude 18:37:55 48° 3° (N) 674 2.4 -18.6°
Enters shadow 18:38:43 41° 41° (NE) 752 2.4 -18.7°
